Time,TemperatureF,DewpointF,PressureIn,WindDirection,WindDirectionDegrees,WindSpeedMPH,WindSpeedGustMPH,Humidity,HourlyPrecipIn,Conditions,Clouds,dailyrainin,SoftwareType,DateUTC
2013-08-23 08:35:00,67.7,64.3,30.10,NE,34,1.0,3.0,89,0.00, +TSGR FG,SKC,-99.99,VWS V12.07,2013-08-23 13:35:00,
2013-08-23 08:40:00,68.0,64.0,30.11,NE,38,1.0,1.0,87,0.00, +TSGR FG,SKC,-99.99,VWS V12.07,2013-08-23 13:40:00,
2013-08-23 08:45:00,68.3,64.3,30.11,NE,49,2.0,3.0,87,0.00, +TSGR FG,SKC,-99.99,VWS V12.07,2013-08-23 13:45:00,
2013-08-23 08:50:00,68.6,64.2,30.11,NNE,30,1.0,2.0,86,0.00, +TSGR FG,SKC,-99.99,VWS V12.07,2013-08-23 13:50:00,
2013-08-23 08:55:00,68.8,63.8,30.11,NE,41,1.0,3.0,84,0.00, +TSGR FG,SKC,-99.99,VWS V12.07,2013-08-23 13:55:00,
2013-08-23 09:00:00,69.2,64.2,30.11,NNE,15,1.0,1.0,84,0.00, +TSGR FG,SKC,-99.99,VWS V12.07,2013-08-23 14:00:00,
2013-08-23 09:05:00,69.4,63.0,30.10,ENE,60,2.0,5.0,80,0.00, +TSGR FG,SKC,-99.99,VWS V12.07,2013-08-23 14:05:00,
2013-08-23 09:10:00,69.7,63.3,30.10,NE,38,3.0,3.0,80,0.00, +TSGR FG,SKC,-99.99,VWS V12.07,2013-08-23 14:10:00,
2013-08-23 09:15:00,70.0,63.9,30.10,East,90,4.0,5.0,81,0.00, +TSGR FG,SKC,-99.99,VWS V12.07,2013-08-23 14:15:00,
2013-08-23 09:20:00,70.2,63.4,30.11,ENE,69,3.0,3.0,79,0.00, +TSGR FG,SKC,-99.99,VWS V12.07,2013-08-23 14:20:00,
2013-08-23 09:25:00,70.3,63.5,30.11,NE,54,1.0,4.0,79,0.00, +TSGR FG,SKC,-99.99,VWS V12.07,2013-08-23 14:25:00,
2013-08-23 09:35:00,71.0,63.8,30.11,NE,35,1.0,4.0,78,0.00, +TSGR FG,SKC,-99.99,VWS V12.07,2013-08-23 14:35:00,
2013-08-23 09:40:00,71.6,63.6,30.11,NE,51,1.0,1.0,76,0.00, +TSGR FG,SKC,-99.99,VWS V12.07,2013-08-23 14:40:00,
2013-08-23 09:45:00,72.0,63.7,30.11,ENE,67,2.0,4.0,75,0.00, +TSGR FG,SKC,-99.99,VWS V12.07,2013-08-23 14:45:00,
2013-08-23 09:50:00,72.4,61.7,30.11,SE,138,1.0,1.0,69,0.00, +TSGR FG,SKC,-99.99,VWS V12.07,2013-08-23 14:50:00,
2013-08-23 09:55:00,72.8,62.9,30.11,NE,52,3.0,8.0,71,0.00, +TSGR FG,SKC,-99.99,VWS V12.07,2013-08-23 14:55:00,
2013-08-23 10:00:00,73.0,61.8,30.11,East,97,0.0,0.0,68,0.00, +TSGR FG,SKC,-99.99,VWS V12.07,2013-08-23 15:00:00,
2013-08-23 10:05:00,73.3,61.3,30.11,ESE,121,4.0,6.0,66,0.00, +TSGR FG,SKC,-99.99,VWS V12.07,2013-08-23 15:05:00,
2013-08-23 10:10:00,73.6,62.8,30.11,East,97,6.0,6.0,69,0.00, +TSGR FG,SKC,-99.99,VWS V12.07,2013-08-23 15:10:00,
2013-08-23 10:15:00,73.7,62.1,30.11,East,92,2.0,6.0,67,0.00, +TSGR FG,SKC,-99.99,VWS V12.07,2013-08-23 15:15:00,
2013-08-23 10:20:00,74.1,62.5,30.11,SE,134,2.0,2.0,67,0.00, +TSGR FG,SKC,-99.99,VWS V12.07,2013-08-23 15:20:00,
2013-08-23 10:25:00,74.4,61.9,30.11,ESE,115,2.0,5.0,65,0.00, +TSGR FG,SKC,-99.99,VWS V12.07,2013-08-23 15:25:00,
2013-08-23 10:30:00,74.7,59.4,30.11,ESE,115,4.0,5.0,59,0.00, +TSGR FG,SKC,-99.99,VWS V12.07,2013-08-23 15:30:00,
2013-08-23 10:35:00,74.8,58.6,30.11,SE,126,4.0,9.0,57,0.00, +TSGR FG,SKC,-99.99,VWS V12.07,2013-08-23 15:35:00,
2013-08-23 10:40:00,75.1,59.3,30.11,ENE,61,2.0,9.0,58,0.00, +TSGR FG,SKC,-99.99,VWS V12.07,2013-08-23 15:40:00,
2013-08-23 10:45:00,75.4,59.1,30.11,East,100,2.0,7.0,57,0.00, +TSGR FG,SKC,-99.99,VWS V12.07,2013-08-23 15:45:00,
2013-08-23 10:50:00,75.6,58.8,30.11,SE,127,4.0,4.0,56,0.00, +TSGR FG,SKC,-99.99,VWS V12.07,2013-08-23 15:50:00,
2013-08-23 10:55:00,75.5,57.7,30.11,ESE,123,4.0,7.0,54,0.00, +TSGR FG,SKC,-99.99,VWS V12.07,2013-08-23 15:55:00,
2013-08-23 11:00:00,75.6,57.3,30.11,ESE,112,5.0,5.0,53,0.00, +TSGR FG,SKC,-99.99,VWS V12.07,2013-08-23 16:00:00,
2013-08-23 11:05:00,75.6,57.3,30.11,SE,131,7.0,8.0,53,0.00, +TSGR FG,SKC,-99.99,VWS V12.07,2013-08-23 16:05:00,
2013-08-23 11:10:00,75.5,57.2,30.11,East,90,4.0,4.0,53,0.00, +TSGR FG,SKC,-99.99,VWS V12.07,2013-08-23 16:10:00,
2013-08-23 11:15:00,75.5,57.7,30.11,ESE,110,5.0,7.0,54,0.00, +TSGR FG,SKC,-99.99,VWS V12.07,2013-08-23 16:15:00,
2013-08-23 11:20:00,75.6,57.3,30.11,East,90,5.0,5.0,53,0.00, +TSGR FG,SKC,-99.99,VWS V12.07,2013-08-23 16:20:00,
2013-08-23 11:25:00,75.6,57.3,30.11,ESE,111,4.0,8.0,53,0.00, +TSGR FG,SKC,-99.99,VWS V12.07,2013-08-23 16:25:00,
2013-08-23 11:30:00,75.7,58.4,30.11,NE,49,3.0,3.0,55,0.00, +TSGR FG,SKC,-99.99,VWS V12.07,2013-08-23 16:30:00,
2013-08-23 11:35:00,75.8,58.0,30.11,East,97,1.0,8.0,54,0.00, +TSGR FG,SKC,-99.99,VWS V12.07,2013-08-23 16:35:00,
2013-08-23 11:40:00,75.8,57.5,30.11,SE,130,2.0,4.0,53,0.00, +TSGR FG,SKC,-99.99,VWS V12.07,2013-08-23 16:40:00,
2013-08-23 11:45:00,75.8,56.9,30.11,NE,51,5.0,7.0,52,0.00, +TSGR FG,SKC,-99.99,VWS V12.07,2013-08-23 16:45:00,
2013-08-23 11:50:00,76.0,59.2,30.11,SSE,155,4.0,7.0,56,0.00, +TSGR FG,SKC,-99.99,VWS V12.07,2013-08-23 16:50:00,
2013-08-23 11:55:00,76.2,57.8,30.11,NE,49,3.0,7.0,53,0.00, +TSGR FG,SKC,-99.99,VWS V12.07,2013-08-23 16:55:00,
2013-08-23 12:00:00,76.1,57.8,30.11,SE,126,6.0,6.0,53,0.00, +TSGR FG,SKC,-99.99,VWS V12.07,2013-08-23 17:00:00,
2013-08-23 12:05:00,76.1,59.3,30.11,ESE,113,5.0,6.0,56,0.00, +TSGR FG,SKC,-99.99,VWS V12.07,2013-08-23 17:05:00,
2013-08-23 12:10:00,76.3,60.0,30.11,NE,53,3.0,3.0,57,0.00, +TSGR FG,SKC,-99.99,VWS V12.07,2013-08-23 17:10:00,
2013-08-23 12:15:00,76.3,59.5,30.11,ENE,74,3.0,8.0,56,0.00, +TSGR FG,SKC,-99.99,VWS V12.07,2013-08-23 17:15:00,
2013-08-23 12:20:00,76.0,58.7,30.10,ESE,106,2.0,8.0,55,0.00, +TSGR FG,SKC,-99.99,VWS V12.07,2013-08-23 17:20:00,
2013-08-23 12:25:00,76.2,58.4,30.10,SE,142,4.0,7.0,54,0.00, +TSGR FG,SKC,-99.99,VWS V12.07,2013-08-23 17:25:00,
2013-08-23 12:30:00,76.0,57.7,30.10,East,93,5.0,5.0,53,0.00, +TSGR FG,SKC,-99.99,VWS V12.07,2013-08-23 17:30:00,
2013-08-23 12:35:00,76.2,59.4,30.10,SE,143,2.0,6.0,56,0.00, +TSGR FG,SKC,-99.99,VWS V12.07,2013-08-23 17:35:00,
2013-08-23 12:40:00,76.2,57.8,30.10,South,182,5.0,5.0,53,0.00, +TSGR FG,SKC,-99.99,VWS V12.07,2013-08-23 17:40:00,
2013-08-23 12:45:00,76.2,58.4,30.11,East,90,1.0,8.0,54,0.00, +TSGR FG,SKC,-99.99,VWS V12.07,2013-08-23 17:45:00,
2013-08-23 12:50:00,76.4,58.5,30.11,ENE,64,2.0,2.0,54,0.00, +TSGR FG,SKC,-99.99,VWS V12.07,2013-08-23 17:50:00,
2013-08-23 12:55:00,76.6,59.2,30.10,SE,142,4.0,9.0,55,0.00, +TSGR FG,SKC,-99.99,VWS V12.07,2013-08-23 17:55:00,
2013-08-23 13:00:00,76.5,57.6,30.10,East,90,4.0,9.0,52,0.00, +TSGR FG,SKC,-99.99,VWS V12.07,2013-08-23 18:00:00,
2013-08-23 13:05:00,76.4,58.0,30.10,ESE,117,1.0,6.0,53,0.00, +TSGR FG,SKC,-99.99,VWS V12.07,2013-08-23 18:05:00,
2013-08-23 13:10:00,76.4,58.5,30.10,East,83,4.0,4.0,54,0.00, +TSGR FG,SKC,-99.99,VWS V12.07,2013-08-23 18:10:00,
2013-08-23 13:20:00,76.3,55.8,30.10,East,89,2.0,2.0,49,0.00, +TSGR FG,SKC,-99.99,VWS V12.07,2013-08-23 18:20:00,
2013-08-23 13:25:00,76.5,55.9,30.10,SSE,167,1.0,4.0,49,0.00, +TSGR FG,SKC,-99.99,VWS V12.07,2013-08-23 18:25:00,
2013-08-23 13:30:00,76.8,57.3,30.10,ESE,109,5.0,7.0,51,0.00, +TSGR FG,SKC,-99.99,VWS V12.07,2013-08-23 18:30:00,
2013-08-23 13:35:00,77.0,55.8,30.10,NE,51,2.0,7.0,48,0.00, +TSGR FG,SKC,-99.99,VWS V12.07,2013-08-23 18:35:00,
2013-08-23 13:40:00,77.0,55.2,30.10,NE,53,7.0,7.0,47,0.00, +TSGR FG,SKC,-99.99,VWS V12.07,2013-08-23 18:40:00,
2013-08-23 13:45:00,76.9,54.0,30.09,NNE,32,3.0,7.0,45,0.00, +TSGR FG,SKC,-99.99,VWS V12.07,2013-08-23 18:45:00,
2013-08-23 13:50:00,76.9,55.7,30.09,East,89,3.0,4.0,48,0.00, +TSGR FG,SKC,-99.99,VWS V12.07,2013-08-23 18:50:00,
2013-08-23 13:55:00,76.9,55.2,30.10,ESE,104,4.0,7.0,47,0.00, +TSGR FG,SKC,-99.99,VWS V12.07,2013-08-23 18:55:00,
2013-08-23 14:00:00,76.9,57.4,30.09,NE,41,6.0,7.0,51,0.00, +TSGR FG,SKC,-99.99,VWS V12.07,2013-08-23 19:00:00,
2013-08-23 14:05:00,77.0,56.4,30.09,East,85,5.0,7.0,49,0.00, +TSGR FG,SKC,-99.99,VWS V12.07,2013-08-23 19:05:00,
2013-08-23 14:10:00,77.0,55.8,30.09,SE,137,2.0,2.0,48,0.00, +TSGR FG,SKC,-99.99,VWS V12.07,2013-08-23 19:10:00,
2013-08-23 14:15:00,77.1,55.9,30.09,East,81,4.0,7.0,48,0.00, +TSGR FG,SKC,-99.99,VWS V12.07,2013-08-23 19:15:00,
2013-08-23 14:20:00,77.1,57.0,30.09,ENE,67,3.0,4.0,50,0.00, +TSGR FG,SKC,-99.99,VWS V12.07,2013-08-23 19:20:00,
2013-08-23 14:25:00,77.4,57.9,30.09,ENE,58,4.0,6.0,51,0.00, +TSGR FG,SKC,-99.99,VWS V12.07,2013-08-23 19:25:00,
2013-08-23 14:30:00,77.3,58.8,30.09,East,91,4.0,4.0,53,0.00, +TSGR FG,SKC,-99.99,VWS V12.07,2013-08-23 19:30:00,
2013-08-23 14:35:00,77.1,55.9,30.09,East,88,3.0,11.0,48,0.00, +TSGR FG,SKC,-99.99,VWS V12.07,2013-08-23 19:35:00,
2013-08-23 14:40:00,77.3,57.8,30.08,East,89,3.0,3.0,51,0.00, +TSGR FG,SKC,-99.99,VWS V12.07,2013-08-23 19:40:00,
2013-08-23 14:45:00,77.1,59.7,30.08,ESE,117,6.0,7.0,55,0.00, +TSGR FG,SKC,-99.99,VWS V12.07,2013-08-23 19:45:00,
2013-08-23 14:50:00,77.1,59.7,30.08,ENE,63,3.0,3.0,55,0.00, +TSGR FG,SKC,-99.99,VWS V12.07,2013-08-23 19:50:00,
2013-08-23 14:55:00,77.5,59.6,30.08,ESE,112,5.0,6.0,54,0.00, +TSGR FG,SKC,-99.99,VWS V12.07,2013-08-23 19:55:00,
2013-08-23 15:00:00,77.5,58.0,30.08,ESE,111,2.0,8.0,51,0.00, +TSGR FG,SKC,-99.99,VWS V12.07,2013-08-23 20:00:00,
2013-08-23 15:10:00,77.5,60.6,30.08,East,98,6.0,7.0,56,0.00, +TSGR FG,SKC,-99.99,VWS V12.07,2013-08-23 20:10:00,
2013-08-23 15:15:00,77.3,58.8,30.08,ENE,63,2.0,7.0,53,0.00, +TSGR FG,SKC,-99.99,VWS V12.07,2013-08-23 20:15:00,
2013-08-23 15:20:00,77.2,60.8,30.08,ENE,65,4.0,4.0,57,0.00, +TSGR FG,SKC,-99.99,VWS V12.07,2013-08-23 20:20:00,
2013-08-23 15:25:00,77.1,60.2,30.08,ENE,58,5.0,7.0,56,0.00, +TSGR FG,SKC,-99.99,VWS V12.07,2013-08-23 20:25:00,
2013-08-23 15:30:00,76.9,60.5,30.08,East,97,4.0,4.0,57,0.00, +TSGR FG,SKC,-99.99,VWS V12.07,2013-08-23 20:30:00,
2013-08-23 15:35:00,76.9,61.5,30.08,East,101,4.0,6.0,59,0.00, +TSGR FG,SKC,-99.99,VWS V12.07,2013-08-23 20:35:00,
2013-08-23 15:40:00,76.6,61.2,30.08,ESE,116,4.0,4.0,59,0.00, +TSGR FG,SKC,-99.99,VWS V12.07,2013-08-23 20:40:00,
2013-08-23 15:45:00,76.6,60.7,30.08,ESE,111,2.0,7.0,58,0.00, +TSGR FG,SKC,-99.99,VWS V12.07,2013-08-23 20:45:00,
2013-08-23 15:50:00,76.7,61.3,30.08,East,86,2.0,7.0,59,0.00, +TSGR FG,SKC,-99.99,VWS V12.07,2013-08-23 20:50:00,
2013-08-23 15:55:00,76.6,61.7,30.08,NE,50,4.0,8.0,60,0.00, +TSGR FG,SKC,-99.99,VWS V12.07,2013-08-23 20:55:00,
2013-08-23 16:05:00,76.1,60.8,30.08,ESE,114,5.0,8.0,59,0.00, +TSGR FG,SKC,-99.99,VWS V12.07,2013-08-23 21:05:00,
2013-08-23 16:10:00,76.3,60.5,30.08,ESE,115,1.0,2.0,58,0.00, +TSGR FG,SKC,-99.99,VWS V12.07,2013-08-23 21:10:00,
2013-08-23 16:15:00,76.2,61.8,30.08,NE,54,4.0,8.0,61,0.00, +TSGR FG,SKC,-99.99,VWS V12.07,2013-08-23 21:15:00,
2013-08-23 16:20:00,76.4,63.3,30.08,SSE,147,4.0,4.0,64,0.00, +TSGR FG,SKC,-99.99,VWS V12.07,2013-08-23 21:20:00,
2013-08-23 16:25:00,76.4,62.0,30.08,ESE,117,5.0,7.0,61,0.00, +TSGR FG,SKC,-99.99,VWS V12.07,2013-08-23 21:25:00,
2013-08-23 16:30:00,76.3,62.8,30.08,SE,136,2.0,4.0,63,0.00, +TSGR FG,SKC,-99.99,VWS V12.07,2013-08-23 21:30:00,
2013-08-23 16:35:00,76.0,63.0,30.08,ENE,76,4.0,7.0,64,0.00, +TSGR FG,SKC,-99.99,VWS V12.07,2013-08-23 21:35:00,
2013-08-23 16:40:00,75.8,61.9,30.08,ENE,58,3.0,4.0,62,0.00, +TSGR FG,SKC,-99.99,VWS V12.07,2013-08-23 21:40:00,
2013-08-23 16:45:00,75.6,62.1,30.08,East,101,4.0,6.0,63,0.00, +TSGR FG,SKC,-99.99,VWS V12.07,2013-08-23 21:45:00,
2013-08-23 16:50:00,75.5,62.9,30.08,SE,124,4.0,4.0,65,0.00, +TSGR FG,SKC,-99.99,VWS V12.07,2013-08-23 21:50:00,
2013-08-23 16:55:00,75.6,63.0,30.08,East,94,5.0,7.0,65,0.00, +TSGR FG,SKC,-99.99,VWS V12.07,2013-08-23 21:55:00,
2013-08-23 17:05:00,75.1,62.5,30.08,ESE,104,4.0,7.0,65,0.00, +TSGR FG,SKC,-99.99,VWS V12.07,2013-08-23 22:05:00,
2013-08-23 17:10:00,74.9,62.3,30.08,East,101,5.0,7.0,65,0.00, +TSGR FG,SKC,-99.99,VWS V12.07,2013-08-23 22:10:00,
2013-08-23 17:15:00,74.6,62.5,30.08,East,86,2.0,7.0,66,0.00, +TSGR FG,SKC,-99.99,VWS V12.07,2013-08-23 22:15:00,
2013-08-23 17:25:00,74.9,62.8,30.08,ESE,113,4.0,7.0,66,0.00, +TSGR FG,SKC,-99.99,VWS V12.07,2013-08-23 22:25:00,
2013-08-23 17:30:00,74.8,62.3,30.08,ESE,104,5.0,5.0,65,0.00, +TSGR FG,SKC,-99.99,VWS V12.07,2013-08-23 22:30:00,
2013-08-23 17:35:00,74.5,62.0,30.08,East,79,3.0,6.0,65,0.00, +TSGR FG,SKC,-99.99,VWS V12.07,2013-08-23 22:35:00,
2013-08-23 17:40:00,74.5,62.8,30.08,NE,54,2.0,2.0,67,0.00, +TSGR FG,SKC,-99.99,VWS V12.07,2013-08-23 22:40:00,
2013-08-23 17:45:00,74.3,62.6,30.08,East,94,4.0,5.0,67,0.00, +TSGR FG,SKC,-99.99,VWS V12.07,2013-08-23 22:45:00,
2013-08-23 17:50:00,73.9,62.3,30.08,East,96,2.0,2.0,67,0.00, +TSGR FG,SKC,-99.99,VWS V12.07,2013-08-23 22:50:00,
2013-08-23 17:55:00,73.7,62.5,30.08,East,98,2.0,5.0,68,0.00, +TSGR FG,SKC,-99.99,VWS V12.07,2013-08-23 22:55:00,
2013-08-23 18:00:00,73.5,62.3,30.08,ESE,110,1.0,6.0,68,0.00, +TSGR FG,SKC,-99.99,VWS V12.07,2013-08-23 23:00:00,
2013-08-23 18:05:00,73.3,62.5,30.07,East,92,5.0,6.0,69,0.00, +TSGR FG,SKC,-99.99,VWS V12.07,2013-08-23 23:05:00,
2013-08-23 18:15:00,73.0,62.2,30.07,East,85,3.0,6.0,69,0.00, +TSGR FG,SKC,-99.99,VWS V12.07,2013-08-23 23:15:00,
2013-08-23 18:20:00,72.8,62.9,30.07,East,83,0.0,0.0,71,0.00, +TSGR FG,SKC,-99.99,VWS V12.07,2013-08-23 23:20:00,
2013-08-23 18:25:00,72.7,62.8,30.07,SE,126,1.0,5.0,71,0.00, +TSGR FG,SKC,-99.99,VWS V12.07,2013-08-23 23:25:00,
2013-08-23 18:30:00,72.6,62.7,30.07,SE,136,2.0,5.0,71,0.00, +TSGR FG,SKC,-99.99,VWS V12.07,2013-08-23 23:30:00,
2013-08-23 18:40:00,72.3,62.4,30.07,East,96,1.0,1.0,71,0.00, +TSGR FG,SKC,-99.99,VWS V12.07,2013-08-23 23:40:00,
2013-08-23 18:45:00,72.1,62.6,30.07,SE,135,2.0,5.0,72,0.00, +TSGR FG,SKC,-99.99,VWS V12.07,2013-08-23 23:45:00,
2013-08-23 18:50:00,71.8,62.3,30.07,ESE,122,1.0,1.0,72,0.00, +TSGR FG,SKC,-99.99,VWS V12.07,2013-08-23 23:50:00,
2013-08-23 19:00:00,71.3,62.2,30.07,East,87,2.0,4.0,73,0.00, +TSGR FG,SKC,-99.99,VWS V12.07,2013-08-24 00:00:00,
2013-08-23 19:05:00,71.2,62.5,30.07,East,87,3.0,3.0,74,0.00, +TSGR FG,SKC,-99.99,VWS V12.07,2013-08-24 00:05:00,
2013-08-23 19:10:00,70.9,62.2,30.07,East,87,2.0,2.0,74,0.00, +TSGR FG,SKC,-99.99,VWS V12.07,2013-08-24 00:10:00,
2013-08-23 19:15:00,70.7,62.0,30.07,East,90,4.0,4.0,74,0.00, +TSGR FG,SKC,-99.99,VWS V12.07,2013-08-24 00:15:00,
2013-08-23 19:25:00,70.1,61.8,30.07,East,90,2.0,4.0,75,0.00, +TSGR FG,SKC,-99.99,VWS V12.07,2013-08-24 00:25:00,
2013-08-23 19:30:00,69.8,61.5,30.07,East,90,1.0,1.0,75,0.00, +TSGR FG,SKC,-99.99,VWS V12.07,2013-08-24 00:30:00,
2013-08-23 19:35:00,69.5,61.2,30.07,East,90,1.0,1.0,75,0.00, +TSGR FG,SKC,-99.99,VWS V12.07,2013-08-24 00:35:00,
2013-08-23 19:40:00,69.1,61.2,30.07,East,90,0.0,0.0,76,0.00, +TSGR FG,SKC,-99.99,VWS V12.07,2013-08-24 00:40:00,
2013-08-23 19:45:00,68.8,61.3,30.07,East,90,0.0,0.0,77,0.00, +TSGR FG,SKC,-99.99,VWS V12.07,2013-08-24 00:45:00,
2013-08-23 19:50:00,68.4,61.3,30.07,East,90,0.0,0.0,78,0.00, +TSGR FG,SKC,-99.99,VWS V12.07,2013-08-24 00:50:00,
2013-08-23 19:55:00,68.0,60.9,30.07,East,90,0.0,0.0,78,0.00, +TSGR FG,SKC,-99.99,VWS V12.07,2013-08-24 00:55:00,
2013-08-23 20:00:00,67.6,60.9,30.07,East,90,0.0,0.0,79,0.00, +TSGR FG,SKC,-99.99,VWS V12.07,2013-08-24 01:00:00,
2013-08-23 20:05:00,67.2,60.5,30.07,East,90,0.0,0.0,79,0.00, +TSGR FG,SKC,-99.99,VWS V12.07,2013-08-24 01:05:00,
2013-08-23 20:10:00,66.9,60.9,30.08,East,90,0.0,0.0,81,0.00, +TSGR FG,SKC,-99.99,VWS V12.07,2013-08-24 01:10:00,
2013-08-23 20:15:00,66.5,60.8,30.08,East,90,0.0,0.0,82,0.00, +TSGR FG,SKC,-99.99,VWS V12.07,2013-08-24 01:15:00,
2013-08-23 20:20:00,66.0,60.3,30.08,East,90,0.0,0.0,82,0.00, +TSGR FG,SKC,-99.99,VWS V12.07,2013-08-24 01:20:00,
2013-08-23 20:25:00,65.6,60.0,30.08,East,90,0.0,0.0,82,0.00, +TSGR FG,SKC,-99.99,VWS V12.07,2013-08-24 01:25:00,
2013-08-23 20:30:00,65.2,59.9,30.08,East,90,0.0,0.0,83,0.00, +TSGR FG,SKC,-99.99,VWS V12.07,2013-08-24 01:30:00,
2013-08-23 20:35:00,64.9,60.0,30.08,East,90,0.0,0.0,84,0.00, +TSGR FG,SKC,-99.99,VWS V12.07,2013-08-24 01:35:00,
2013-08-23 20:40:00,64.5,59.9,30.08,East,90,0.0,0.0,85,0.00, +TSGR FG,SKC,-99.99,VWS V12.07,2013-08-24 01:40:00,
2013-08-23 20:45:00,64.1,59.8,30.09,East,90,0.0,0.0,86,0.00, +TSGR FG,SKC,-99.99,VWS V12.07,2013-08-24 01:45:00,
2013-08-23 20:50:00,63.8,59.5,30.09,East,90,0.0,0.0,86,0.00, +TSGR FG,SKC,-99.99,VWS V12.07,2013-08-24 01:50:00,
2013-08-23 20:55:00,63.6,59.7,30.09,East,90,0.0,0.0,87,0.00, +TSGR FG,SKC,-99.99,VWS V12.07,2013-08-24 01:55:00,
2013-08-23 21:00:00,63.3,59.4,30.09,East,90,0.0,0.0,87,0.00, +TSGR FG,SKC,-99.99,VWS V12.07,2013-08-24 02:00:00,
2013-08-23 21:05:00,63.0,59.4,30.09,East,90,0.0,0.0,88,0.00, +TSGR FG,SKC,-99.99,VWS V12.07,2013-08-24 02:05:00,
2013-08-23 21:10:00,62.8,59.5,30.09,East,90,0.0,0.0,89,0.00, +TSGR FG,SKC,-99.99,VWS V12.07,2013-08-24 02:10:00,
2013-08-23 21:15:00,62.7,59.7,30.09,East,90,0.0,0.0,90,0.00, +TSGR FG,SKC,-99.99,VWS V12.07,2013-08-24 02:15:00,
2013-08-23 21:20:00,62.5,59.5,30.10,East,90,0.0,0.0,90,0.00, +TSGR FG,SKC,-99.99,VWS V12.07,2013-08-24 02:20:00,
2013-08-23 21:25:00,62.4,59.7,30.10,East,90,0.0,0.0,91,0.00, +TSGR FG,SKC,-99.99,VWS V12.07,2013-08-24 02:25:00,
2013-08-23 21:30:00,62.3,59.6,30.10,East,90,0.0,0.0,91,0.00, +TSGR FG,SKC,-99.99,VWS V12.07,2013-08-24 02:30:00,
2013-08-23 21:35:00,62.1,59.5,30.10,East,90,0.0,0.0,91,0.00, +TSGR FG,SKC,-99.99,VWS V12.07,2013-08-24 02:35:00,
2013-08-23 21:40:00,61.8,59.2,30.10,East,90,0.0,0.0,91,0.00, +TSGR FG,SKC,-99.99,VWS V12.07,2013-08-24 02:40:00,
2013-08-23 21:45:00,61.5,59.2,30.10,East,90,0.0,0.0,92,0.00, +TSGR FG,SKC,-99.99,VWS V12.07,2013-08-24 02:45:00,
2013-08-23 21:50:00,61.4,59.1,30.10,East,90,0.0,0.0,92,0.00, +TSGR FG,SKC,-99.99,VWS V12.07,2013-08-24 02:50:00,
2013-08-23 21:55:00,61.4,59.4,30.10,East,90,0.0,0.0,93,0.00, +TSGR FG,SKC,-99.99,VWS V12.07,2013-08-24 02:55:00,
2013-08-23 22:00:00,61.3,59.3,30.10,East,90,0.0,0.0,93,0.00, +TSGR FG,SKC,-99.99,VWS V12.07,2013-08-24 03:00:00,
2013-08-23 22:05:00,61.1,59.1,30.10,East,90,0.0,0.0,93,0.00, +TSGR FG,SKC,-99.99,VWS V12.07,2013-08-24 03:05:00,
2013-08-23 22:10:00,61.0,59.0,30.10,East,90,0.0,0.0,93,0.00, +TSGR FG,SKC,-99.99,VWS V12.07,2013-08-24 03:10:00,
2013-08-23 22:15:00,60.9,58.9,30.10,East,90,0.0,0.0,93,0.00, +TSGR FG,SKC,-99.99,VWS V12.07,2013-08-24 03:15:00,
2013-08-23 22:20:00,60.8,58.8,30.10,East,90,0.0,0.0,93,0.00, +TSGR FG,SKC,-99.99,VWS V12.07,2013-08-24 03:20:00,
2013-08-23 22:25:00,60.6,58.6,30.10,East,90,0.0,0.0,93,0.00, +TSGR FG,SKC,-99.99,VWS V12.07,2013-08-24 03:25:00,
2013-08-23 22:30:00,60.4,58.4,30.10,East,90,0.0,0.0,93,0.00, +TSGR FG,SKC,-99.99,VWS V12.07,2013-08-24 03:30:00,
2013-08-23 22:35:00,60.3,58.3,30.10,East,90,0.0,0.0,93,0.00, +TSGR FG,SKC,-99.99,VWS V12.07,2013-08-24 03:35:00,
2013-08-23 22:40:00,60.1,58.4,30.10,East,90,0.0,0.0,94,0.00, +TSGR FG,SKC,-99.99,VWS V12.07,2013-08-24 03:40:00,
2013-08-23 22:45:00,60.1,58.4,30.10,East,90,0.0,0.0,94,0.00, +TSGR FG,SKC,-99.99,VWS V12.07,2013-08-24 03:45:00,
2013-08-23 22:55:00,60.0,58.3,30.10,East,90,0.0,0.0,94,0.00, +TSGR FG,SKC,-99.99,VWS V12.07,2013-08-24 03:55:00,
2013-08-23 23:00:00,59.8,58.1,30.10,East,90,0.0,0.0,94,0.00, +TSGR FG,SKC,-99.99,VWS V12.07,2013-08-24 04:00:00,
2013-08-23 23:05:00,59.7,58.0,30.10,East,90,0.0,0.0,94,0.00, +TSGR FG,SKC,-99.99,VWS V12.07,2013-08-24 04:05:00,
2013-08-23 23:10:00,59.7,58.3,30.10,East,90,0.0,0.0,95,0.00, +TSGR FG,SKC,-99.99,VWS V12.07,2013-08-24 04:10:00,
2013-08-23 23:15:00,59.6,57.9,30.11,East,90,0.0,0.0,94,0.00, +TSGR FG,SKC,-99.99,VWS V12.07,2013-08-24 04:15:00,
2013-08-23 23:20:00,59.5,57.8,30.11,East,90,0.0,0.0,94,0.00, +TSGR FG,SKC,-99.99,VWS V12.07,2013-08-24 04:20:00,
2013-08-23 23:25:00,59.3,57.6,30.11,East,90,0.0,0.0,94,0.00, +TSGR FG,SKC,-99.99,VWS V12.07,2013-08-24 04:25:00,
2013-08-23 23:30:00,59.1,57.4,30.11,East,90,0.0,0.0,94,0.00, +TSGR FG,SKC,-99.99,VWS V12.07,2013-08-24 04:30:00,
2013-08-23 23:35:00,58.9,57.2,30.11,East,90,0.0,0.0,94,0.00, +TSGR FG,SKC,-99.99,VWS V12.07,2013-08-24 04:35:00,
2013-08-23 23:40:00,58.7,57.3,30.10,East,90,0.0,0.0,95,0.00, +TSGR FG,SKC,-99.99,VWS V12.07,2013-08-24 04:40:00,
2013-08-23 23:45:00,58.7,57.0,30.10,East,90,0.0,0.0,94,0.00, +TSGR FG,SKC,-99.99,VWS V12.07,2013-08-24 04:45:00,
2013-08-23 23:50:00,58.5,56.8,30.10,East,90,0.0,0.0,94,0.00, +TSGR FG,SKC,-99.99,VWS V12.07,2013-08-24 04:50:00,
2013-08-23 23:55:00,58.5,57.1,30.10,East,90,0.0,0.0,95,0.00, +TSGR FG,SKC,-99.99,VWS V12.07,2013-08-24 04:55:00,